Location: hvezdarna zebrak
(49.8744°N, 13.8989°E)
Time: 18:54:17
(UTC+02:00)

Tiangong - Pass Details

Date: 18 March 2026
Orbit: 376 x 385 km, 41.5° (Epoch: 18 April)

Event Time Altitude Azimuth Distance (km) Brightness Sun altitude
Exits shadow 05:15:04 11° 226° (SW) 1,335 0.1 -9.9°
Maximum altitude 05:17:02 18° 185° (S) 1,041 -0.1 -9.6°
Drops below altitude 10° 05:19:14 10° 141° (SE) 1,404 1.1 -9.3°
Sets 05:21:45 0° 121° (ESE) 2,261 2.6 -8.9°
